Location: Eschentzwiller
(47.7125°N, 7.3981°E)
Time: 04:10:13
(UTC+00:00)

ATLAS 5 CENTAUR R/B - Pass Details

Date: 27 October 2020
Orbit: 522 x 1136 km, 63.4° (Epoch: 30 November)

Event Time Altitude Azimuth Distance (km) Brightness Sun altitude
Rises 17:01:51 0° 272° (W) 2,768 6.9 -7.6°
Reaches altitude 10° 17:04:31 10° 291° (WNW) 1,946 5.1 -8.0°
Maximum altitude 17:07:42 19° 338° (NNW) 1,528 3.7 -8.6°
Drops below altitude 10° 17:11:13 10° 24° (NNE) 2,184 4.0 -9.2°
Enters shadow 17:13:30 - 38° (NE) 2,914 4.6 -9.5°
